Kalamazoo, MI

12:47 AM EDT on September 23, 2017 (GMT -0400)
Kalamazoo-Battle Creek International

Weather History for KAZO - August, 2014

Change the Weather History Date:

Friday, August 8, 2014

  Actual Average Record
Temperature  
Mean Temperature 70 °F 72 °F  
Max Temperature 84 °F 82 °F 95 °F (1949)
Min Temperature 55 °F 61 °F 49 °F (1990)
Degree Days  
Heating Degree Days 0 0  
Month to date heating degree days 0 0  
Since 1 June heating degree days 42 53  
Since 1 July heating degree days 23 5  
Cooling Degree Days 5 7  
Month to date cooling degree days 44 56  
Year to date cooling degree days 389 482  
Since 1 June cooling degree days 335 441  
Growing Degree Days 20 (Base 50)    
Moisture  
Dew Point 56 °F    
Average Humidity 63    
Maximum Humidity 87    
Minimum Humidity 39    
Precipitation  
Precipitation 0.00 in 0.12 in 1.22 in (1991)
Month to date precipitation 0.22 0.77  
Year to date precipitation 15.46 20.49  
Sea Level Pressure  
Sea Level Pressure 30.11 in    
Wind  
Wind Speed 3 mph (East)    
Max Wind Speed 12 mph    
Max Gust Speed 16 mph    
Visibility 9 miles    
Events      
T = Trace of Precipitation, MM = Missing Value Source: NWS Daily Summary

Daily Weather History Graph

Daily Weather History Graph

Search for Another Location

Airport or City:

Trip Planner

Search our weather history database for the weather conditions in past years. The results will help you decide how hot, cold, wet, or windy it might be!

Date:

Astronomy

Aug. 08, 2014 Rise Set
Actual Time 6:42 AM EDT 8:52 PM EDT
Civil Twilight 6:11 AM EDT 9:23 PM EDT
Nautical Twilight 5:33 AM EDT 10:01 PM EDT
Astronomical Twilight 4:51 AM EDT 10:43 PM EDT
Moon 7:03 PM EDT (8/8) 4:13 AM EDT (8/8)
Length of Visible Light 15h 12m
Length of Day
14h 10m
Waxing Gibbous, 93% of the Moon is Illuminated
Aug 8
Waxing Gibbous
Aug 10
Full
Aug 17
Last Quarter
Aug 25
New
Sep 2
First Quarter

Hourly Weather History & Observations

Time (EDT) Temp. Heat Index Dew Point Humidity Pressure Visibility Wind Dir Wind Speed Gust Speed Precip Events Conditions
12:53 AM 62.1 °F - 55.9 °F 80% 30.10 in 10.0 mi Calm Calm - N/A   Clear
1:53 AM 61.0 °F - 55.0 °F 81% 30.10 in 10.0 mi Calm Calm - N/A   Clear
2:53 AM 60.1 °F - 55.9 °F 86% 30.09 in 10.0 mi Calm Calm - N/A   Clear
3:53 AM 59.0 °F - 55.0 °F 87% 30.10 in 9.0 mi Calm Calm - N/A   Clear
4:53 AM 57.9 °F - 54.0 °F 87% 30.12 in 9.0 mi Calm Calm - N/A   Clear
5:53 AM 57.0 °F - 54.0 °F 89% 30.12 in 7.0 mi Calm Calm - N/A   Clear
6:53 AM 57.0 °F - 54.0 °F 89% 30.13 in 6.0 mi Calm Calm - N/A   Clear
7:53 AM 60.1 °F - 55.9 °F 86% 30.14 in 6.0 mi Calm Calm - N/A   Clear
8:53 AM 64.0 °F - 57.9 °F 80% 30.16 in 7.0 mi East 3.5 mph - N/A   Clear
9:53 AM 70.0 °F - 59.0 °F 68% 30.14 in 10.0 mi East 5.8 mph - N/A   Clear
10:53 AM 75.0 °F - 55.0 °F 50% 30.13 in 10.0 mi East 5.8 mph - N/A   Clear
11:53 AM 77.0 °F - 55.9 °F 48% 30.12 in 10.0 mi Variable 5.8 mph - N/A   Clear
12:53 PM 80.1 °F 79.9 °F 53.1 °F 39% 30.12 in 10.0 mi Variable 5.8 mph - N/A   Clear
1:53 PM 79.0 °F - 54.0 °F 42% 30.11 in 10.0 mi Variable 4.6 mph - N/A   Partly Cloudy
2:53 PM 81.0 °F 80.8 °F 55.9 °F 42% 30.10 in 10.0 mi Variable 4.6 mph - N/A   Partly Cloudy
3:53 PM 81.0 °F 80.8 °F 55.9 °F 42% 30.09 in 10.0 mi Variable 5.8 mph - N/A   Scattered Clouds
4:53 PM 82.0 °F 81.6 °F 55.9 °F 41% 30.07 in 10.0 mi ESE 8.1 mph - N/A   Partly Cloudy
5:53 PM 82.0 °F 81.4 °F 55.0 °F 39% 30.07 in 10.0 mi ESE 8.1 mph - N/A   Scattered Clouds
6:53 PM 80.1 °F 80.6 °F 57.9 °F 47% 30.07 in 10.0 mi Variable 4.6 mph - N/A   Partly Cloudy
7:53 PM 79.0 °F - 57.9 °F 48% 30.08 in 10.0 mi Variable 4.6 mph - N/A   Partly Cloudy
8:53 PM 73.9 °F - 57.9 °F 57% 30.08 in 10.0 mi Variable 4.6 mph - N/A   Partly Cloudy
9:53 PM 72.0 °F - 59.0 °F 64% 30.09 in 10.0 mi NE 3.5 mph - N/A   Clear
10:53 PM 69.1 °F - 57.9 °F 68% 30.10 in 10.0 mi ENE 3.5 mph - N/A   Clear
11:53 PM 66.9 °F - 57.0 °F 70% 30.11 in 10.0 mi Calm Calm - N/A   Clear